Location: Vancouver
(49.2500°N, 123.1330°W)
Time: 19:20:43

Transit 2A Rocket - Visible Passes

Search period start: 01 December 2015 00:00
Search period end: 11 December 2015 00:00
Orbit: 595 x 910 km, 66.7° (Epoch: 01 December)

Date Brightness Start Highest point End Pass type
(mag) Time Alt. Az. Time Alt. Az. Time Alt. Az.
01 Dec 6.8 17:34:04 10° WNW 17:36:42 15° NNW 17:39:17 10° N visible
02 Dec 6.5 16:50:45 10° W 16:54:07 21° NW 16:57:24 10° NNE visible
03 Dec 7.1 17:55:31 10° NNW 17:55:40 10° NNW 17:55:45 10° NNW visible
04 Dec 6.9 17:10:57 10° NW 17:12:56 13° NNW 17:14:50 10° N visible
